Lapse_Rate
7.1 7.2 7.2 7.3 7.3 7.4 7.4 7.5 7.6 7.7 7.8 7.8 7.8 7.8 8.0 8.1 8.2 8.5 8.4 8.5 8.4 8.4 8.2 8.5 8.4 8.3 7.9 8.3 7.8 7.8 6.9 6.6 6.7 6.7 6.5 6.3 6.1 6.2 6.1 5.9 6.1 6.0 6.0 6.2 6.4
7.0 7.2 7.2 7.3 7.3 7.4 7.4 7.4 7.5 7.6 7.6 7.7 7.7 7.7 7.8 8.0 8.2 8.3 8.3 8.5 8.5 8.5 8.5 8.7 8.4 8.4 8.4 8.1 7.9 7.6 7.3 7.1 7.2 7.1 6.8 6.5 6.0 6.1 6.1 6.2 6.1 6.0 5.9 6.2 6.2
6.6 6.8 7.1 7.2 7.2 7.4 7.4 7.4 7.4 7.5 7.5 7.6 7.5 7.7 7.8 7.9 8.1 8.2 8.2 8.4 8.7 8.7 8.7 8.7 8.5 8.6 8.2 8.1 7.7 7.4 7.3 7.4 7.1 7.0 6.7 6.1 6.0 6.1 5.8 5.8 5.9 6.0 5.9 5.9 6.1
6.6 6.6 6.7 6.8 7.0 7.2 7.3 7.4 7.4 7.3 7.4 7.4 7.4 7.4 7.6 7.7 7.8 7.9 8.2 8.3 8.6 8.7 8.8 8.6 8.3 8.3 8.0 7.8 7.5 7.2 7.2 7.2 7.4 7.0 6.8 6.4 6.3 6.2 5.8 5.8 5.9 5.9 5.7 5.9 6.1
6.3 6.4 6.6 6.7 6.8 6.8 6.9 7.2 7.3 7.3 7.4 7.4 7.3 7.4 7.4 7.5 8.0 7.7 7.7 8.2 8.3 8.7 8.9 8.4 8.3 8.3 7.8 7.5 7.4 7.6 7.2 7.3 7.5 7.3 6.9 6.5 6.2 5.8 5.5 5.8 6.1 6.1 5.6 5.7 5.9
6.2 6.2 6.3 6.5 6.6 6.7 6.7 6.8 6.9 7.0 7.1 7.2 7.2 7.2 7.2 7.5 8.3 7.7 7.7 8.0 8.2 8.6 8.6 8.4 8.2 8.2 8.0 7.5 7.3 7.6 7.7 7.5 7.2 7.3 7.1 6.6 6.7 6.2 6.0 6.0 6.2 6.0 5.6 5.5 5.5
6.1 6.2 6.1 6.3 6.4 6.5 6.6 6.6 6.7 6.7 6.7 6.8 7.0 7.1 7.0 7.7 8.1 7.7 8.0 8.1 8.1 8.5 8.4 8.2 8.3 8.1 7.9 7.5 7.3 7.5 7.7 7.2 6.8 7.1 7.1 6.8 7.0 6.8 6.3 6.1 6.1 5.8 5.4 5.4 5.3
5.8 6.0 6.1 6.1 6.3 6.4 6.4 6.3 6.5 6.6 6.5 6.5 6.6 6.7 6.9 7.7 7.9 7.9 8.1 8.3 8.3 8.2 8.3 8.0 8.0 8.2 8.1 7.6 7.5 7.5 7.6 7.4 7.3 7.2 6.9 6.9 6.9 7.0 6.7 6.3 5.9 5.9 5.6 5.4 5.3
5.2 5.5 5.7 5.9 6.2 6.4 6.4 6.3 6.2 6.3 6.3 6.3 6.3 6.4 7.2 7.6 7.9 7.6 7.9 8.2 8.2 8.0 8.2 8.1 7.9 8.2 8.1 8.0 7.9 7.6 7.3 7.3 7.6 7.3 6.9 6.8 6.8 7.3 7.1 6.8 6.3 6.2 5.9 5.5 5.2
4.8 4.9 5.2 5.5 5.9 6.1 6.1 6.2 6.2 6.1 6.1 6.1 6.2 6.3 7.0 6.8 7.4 7.6 7.8 8.2 8.0 8.1 8.1 7.9 7.7 8.0 8.1 8.4 8.3 8.0 7.7 7.6 7.7 7.5 7.4 7.0 6.7 7.0 7.3 6.7 6.3 6.3 6.3 6.1 5.7
4.7 4.7 4.6 4.9 5.4 5.7 5.8 5.9 5.9 6.0 6.1 6.1 6.3 6.8 6.9 7.3 7.0 7.3 7.6 8.1 7.8 8.0 7.8 7.7 7.4 7.7 8.4 8.8 8.6 8.3 8.3 8.0 8.1 7.8 7.5 7.2 6.7 6.7 7.2 6.9 6.7 6.6 6.3 6.1 5.9
4.7 4.8 4.7 4.5 4.9 5.1 5.4 5.4 5.5 5.8 6.2 6.2 6.3 6.7 6.8 6.7 7.1 6.9 7.2 7.7 7.3 7.6 7.6 7.4 7.1 8.0 8.7 8.6 8.2 8.0 8.3 8.2 8.3 8.1 7.6 7.6 7.5 7.0 7.2 6.7 6.5 6.4 6.3 6.3 6.2
5.2 5.2 4.8 4.7 4.7 4.7 4.9 5.0 5.0 5.4 5.5 6.5 6.1 6.5 7.0 6.3 6.9 6.7 7.0 7.7 7.3 7.4 7.6 7.2 7.5 8.2 8.3 8.4 8.3 8.2 7.8 8.3 8.3 8.3 7.7 7.8 7.9 7.8 7.6 6.8 6.1 6.4 6.0 6.2 6.1
5.6 5.6 5.5 5.0 4.7 4.7 4.5 4.5 4.7 4.7 4.5 6.0 6.8 6.8 7.2 6.3 6.7 6.7 6.7 7.1 7.2 7.3 7.3 7.6 7.9 8.1 8.4 8.2 8.2 7.7 8.2 8.2 8.1 8.1 7.9 7.7 7.6 8.0 8.2 7.5 6.8 6.6 6.4 6.4 6.3
6.0 5.7 5.7 6.0 5.1 4.8 4.6 4.4 4.5 4.3 3.7 6.5 6.8 6.4 7.3 6.6 7.1 7.1 6.8 6.7 7.2 7.3 7.0 7.2 8.0 7.8 8.1 8.2 8.3 8.4 8.6 8.9 8.7 8.2 7.9 7.7 7.3 8.0 7.9 7.9 7.4 6.9 6.7 6.7 6.5
6.2 5.8 6.1 5.8 5.6 5.2 5.0 4.8 4.3 4.4 3.5 6.3 6.1 6.6 6.6 6.8 6.8 7.4 6.8 6.6 7.2 7.0 7.0 7.6 8.0 8.1 8.1 8.8 8.7 9.0 8.7 8.6 8.8 8.4 7.0 8.3 7.9 8.3 8.4 8.8 7.8 7.0 7.1 6.6 6.6
5.9 6.1 6.1 5.9 5.2 6.0 5.6 5.1 4.3 3.5 5.4 6.4 6.0 6.0 6.1 6.7 6.7 6.7 6.8 6.5 6.6 6.1 6.2 7.1 7.6 8.2 8.0 8.8 8.8 8.6 8.7 8.7 7.7 6.5 6.6 8.2 7.7 8.5 9.0 9.0 8.7 7.6 7.3 6.8 6.7
5.7 5.8 5.8 5.8 5.8 5.9 6.0 5.2 3.9 4.1 5.7 5.8 6.0 6.1 5.9 6.3 6.5 6.7 6.9 6.6 6.8 6.7 6.9 6.7 7.1 7.7 8.0 8.0 8.0 8.4 8.7 8.0 6.3 6.0 7.6 8.4 7.4 9.0 9.3 8.9 8.7 8.0 7.6 7.2 6.9
6.8 6.1 6.0 6.1 6.2 6.1 5.7 5.1 4.5 4.3 4.3 5.8 5.8 5.8 6.0 5.8 6.2 6.7 6.8 6.7 6.9 6.6 6.8 6.8 7.0 8.0 7.8 8.3 8.2 8.1 8.6 8.6 8.2 8.2 7.8 8.5 8.7 8.8 9.0 9.0 8.8 8.1 7.4 7.4 7.1
7.3 6.9 6.5 6.7 6.7 6.7 6.0 5.6 5.2 4.9 4.8 4.8 5.2 5.0 5.6 5.8 6.1 6.1 6.7 6.7 6.7 6.7 6.8 7.2 7.1 7.6 8.1 8.4 8.2 8.3 8.4 8.3 7.8 7.0 7.3 8.5 9.0 9.0 9.4 9.3 8.9 8.1 8.0 7.5 7.3
7.3 7.2 6.5 6.4 6.8 6.6 6.1 5.6 5.8 5.7 5.4 4.5 4.5 4.2 5.0 4.2 4.8 5.2 6.0 6.7 7.0 7.0 6.8 7.1 7.3 7.9 8.1 8.2 8.3 8.4 8.1 8.2 8.5 8.9 7.3 6.9 8.7 9.1 9.4 9.4 9.2 8.9 8.3 8.0 7.8
7.1 7.3 7.0 6.5 6.6 6.3 6.2 5.9 5.3 5.8 4.5 3.5 4.0 4.2 4.3 3.7 4.6 4.9 5.7 6.5 6.7 7.1 6.9 6.8 6.9 7.6 8.1 8.1 8.6 8.9 8.8 8.6 8.4 8.4 8.7 9.0 9.0 9.1 9.1 9.3 9.3 9.3 9.1 8.5 8.1
7.1 7.2 7.3 7.2 6.6 6.4 6.3 6.1 5.5 5.6 4.7 4.6 3.7 4.4 3.9 4.0 3.8 4.6 5.2 6.0 6.5 6.8 7.0 7.1 6.8 7.2 7.8 8.1 8.6 8.8 8.6 8.5 8.6 8.9 9.1 8.3 8.7 9.4 9.3 9.2 9.1 9.4 9.3 9.0 8.5
7.0 7.2 7.0 6.8 6.5 6.6 6.7 6.6 6.0 5.5 4.8 4.4 3.5 3.7 4.3 4.3 3.5 4.5 5.3 6.4 6.2 6.6 6.9 7.0 7.0 7.0 7.3 7.5 8.0 8.3 8.2 8.4 8.7 8.5 9.1 8.9 9.0 9.4 9.1 8.9 8.9 9.1 9.4 9.3 9.0
6.8 6.9 6.8 7.0 6.5 6.5 6.7 6.8 6.8 6.0 5.1 4.7 4.1 3.4 4.0 4.1 4.1 4.1 5.1 5.7 6.3 6.9 7.0 7.0 6.7 7.1 7.3 7.7 8.2 8.6 8.5 8.6 8.5 8.6 8.5 8.5 8.8 9.3 9.4 9.3 8.8 8.9 9.2 9.3 9.1
6.7 6.8 7.0 7.2 6.9 7.2 6.8 6.6 6.7 6.2 5.1 5.4 4.4 3.8 4.0 4.1 4.1 5.0 4.5 4.7 6.0 6.2 6.9 7.0 6.8 6.9 7.3 7.8 8.0 8.3 8.7 8.6 8.6 8.7 8.5 8.4 8.9 9.2 9.3 9.1 8.7 8.9 9.2 9.3 9.2
6.7 6.8 7.0 7.0 7.2 7.2 7.1 6.9 6.5 5.8 5.8 5.3 5.3 4.1 3.9 4.4 4.5 4.9 4.8 5.3 5.7 6.0 5.9 6.2 6.6 7.0 7.1 7.8 8.0 7.7 8.3 8.8 8.7 8.8 8.6 8.3 8.6 9.1 9.1 9.0 8.7 9.1 9.2 9.4 9.3
Wind_Speed
25 26 26 26 26 26 26 25 25 24 25 25 25 24 23 23 22 3 5 3 5 18 12 6 3 5 3 4 6 4 3 3 5 6 5 7 5 5 7 8 3 3 5 13 14
26 26 27 28 28 27 27 26 25 24 24 24 25 26 24 22 3 4 6 4 16 18 6 7 5 7 4 5 4 4 4 7 8 7 9 13 7 8 6 3 4 8 14 18 15
26 27 28 29 30 29 28 27 27 25 24 23 23 26 25 17 6 4 9 8 13 10 1 2 3 3 2 3 3 4 5 5 8 8 15 13 10 4 11 3 5 11 19 17 14
25 26 28 29 30 31 30 30 28 26 24 23 23 24 27 3 4 3 11 9 7 1 2 3 3 4 2 4 3 4 5 4 9 11 11 10 5 8 2 2 9 15 19 15 13
24 25 27 29 30 31 32 31 29 28 26 24 20 20 6 3 9 3 7 7 5 2 2 4 2 3 3 3 2 4 4 4 16 13 11 11 8 6 6 9 14 17 14 13 9
26 27 27 29 30 30 31 31 30 29 27 24 17 15 1 6 5 5 5 3 2 2 3 4 3 5 3 4 3 3 10 11 15 13 12 11 6 4 5 11 13 13 11 9 8
26 28 29 30 32 32 33 33 32 29 27 22 12 3 1 14 5 6 7 2 4 4 5 5 4 3 5 5 6 5 10 10 8 6 6 14 5 4 11 11 12 11 10 9 8
27 28 29 32 34 35 36 36 34 29 23 15 5 2 7 6 6 8 1 4 6 7 6 10 4 4 4 2 6 5 5 4 5 7 7 0 0 7 12 12 10 12 10 11 10
27 28 30 32 35 38 40 38 33 12 2 8 3 3 9 7 3 9 9 7 2 3 5 5 4 3 4 5 4 6 5 2 4 9 7 2 3 12 14 14 14 13 12 12 11
29 30 30 33 37 40 42 33 12 3 2 4 3 2 4 5 5 3 6 8 5 1 0 2 4 3 4 4 5 5 4 3 4 6 4 5 5 15 15 12 12 12 13 14 13
28 31 33 34 38 40 17 4 6 5 7 6 4 4 5 7 5 3 4 6 5 5 5 2 4 6 11 9 4 6 5 6 3 2 4 5 9 18 17 13 13 12 14 13 13
28 29 34 36 40 29 6 6 6 5 10 10 16 14 21 4 6 4 3 5 6 6 6 2 6 9 7 3 4 5 4 5 2 6 4 6 8 16 18 19 16 15 13 14 11
28 29 31 37 36 5 3 6 1 2 4 8 8 7 7 11 9 10 5 2 6 7 8 8 6 8 8 5 6 4 5 3 3 5 4 6 1 9 12 11 13 14 13 13 13
27 28 28 37 6 7 6 7 14 4 3 7 6 9 8 10 7 10 9 6 2 14 8 7 6 7 5 9 8 8 11 8 8 4 3 4 4 7 13 18 15 17 16 15 14
29 27 25 13 4 5 7 19 15 2 4 4 5 0 4 12 8 10 7 4 8 6 9 9 9 12 8 10 9 10 8 10 5 5 4 3 1 5 15 16 19 19 19 17 16
28 29 26 2 3 7 17 15 2 4 8 6 3 4 5 3 4 5 7 4 6 3 2 9 3 9 11 10 12 6 2 3 5 4 2 6 7 5 8 20 19 20 20 19 17
29 31 19 6 4 6 11 4 4 4 6 5 3 5 4 7 7 6 12 12 8 8 11 2 13 3 3 2 6 4 7 3 4 1 7 6 6 14 10 10 18 21 21 20 17
31 32 6 10 9 5 4 4 4 4 8 7 8 11 5 6 7 6 11 14 11 6 6 9 7 12 6 9 8 8 9 6 6 3 5 4 6 10 19 17 19 19 21 19 17
26 4 5 4 3 3 4 2 6 1 5 12 10 6 7 8 3 6 6 19 16 10 8 8 7 2 9 5 11 5 5 10 1 5 3 5 7 6 6 14 14 15 13 16 17
4 4 4 6 7 4 4 4 4 3 9 6 6 7 6 9 9 6 9 5 7 13 6 6 2 6 4 6 5 10 7 3 2 6 7 5 5 5 3 11 13 14 17 17 16
3 4 3 12 3 4 3 6 5 3 9 6 4 6 4 6 6 5 4 4 9 7 8 6 4 4 7 8 16 4 3 4 5 6 6 2 6 6 10 12 18 18 18 17 17
3 3 3 4 3 1 2 3 7 7 4 4 5 7 6 5 5 4 5 4 12 3 11 8 5 4 10 1 5 10 10 8 5 5 3 4 7 4 10 14 14 14 15 18 17
3 3 4 3 3 2 5 4 3 4 5 5 6 2 4 5 5 6 6 7 12 10 7 8 5 1 2 5 2 6 6 6 5 4 6 7 7 3 4 6 11 15 15 16 18
2 3 4 4 0 2 4 3 4 4 3 7 5 5 6 8 7 8 6 9 17 18 17 7 5 12 8 6 6 6 7 7 8 5 6 6 8 6 8 11 12 17 17 18 18
1 1 1 3 2 4 1 3 4 4 3 4 4 5 6 5 5 12 13 15 14 6 6 9 8 7 18 6 2 6 7 10 8 8 8 8 9 10 8 10 10 19 20 16 17
2 1 3 3 4 3 1 3 6 7 2 6 6 7 6 5 8 12 11 5 8 5 8 8 6 9 9 18 21 9 8 8 11 6 5 7 9 9 3 4 6 13 15 16 17
2 2 3 4 3 2 2 3 8 13 9 15 12 12 14 13 9 9 12 18 18 16 9 5 2 7 19 7 6 11 22 10 7 6 10 9 11 4 6 8 8 10 15 20 20
Wind_Direction
1 359 355 352 349 347 346 344 342 341 338 334 330 328 326 325 315 178 266 220 129 161 132 126 207 204 175 221 202 159 72 166 171 165 148 159 143 154 89 133 106 127 115 119 133
359 355 352 350 346 344 341 339 338 337 335 333 330 327 327 331 311 279 264 130 133 165 159 188 198 171 201 211 198 146 142 193 167 152 163 155 156 131 124 125 53 84 100 121 138
355 352 350 347 344 340 337 335 333 332 332 331 329 325 325 326 330 259 61 134 161 177 345 270 279 213 258 223 188 175 191 165 156 142 144 142 134 89 127 224 194 164 142 140 143
352 349 347 344 341 338 335 332 329 327 327 326 328 324 321 312 265 68 97 109 148 233 312 282 302 5 312 296 196 105 59 121 139 131 138 143 83 106 352 319 140 148 141 142 151
349 347 343 340 337 334 330 327 324 321 320 321 326 323 342 336 248 317 97 131 125 135 288 293 352 324 10 310 30 87 110 54 135 131 126 100 88 88 73 94 112 132 136 150 149
347 344 341 337 334 330 325 321 318 315 312 313 320 316 313 248 253 288 63 47 65 347 306 272 321 280 287 334 71 64 94 97 131 120 122 111 121 91 120 123 122 138 143 159 162
343 342 338 335 332 328 322 317 312 308 306 304 304 282 186 237 249 287 319 226 186 214 274 240 275 349 13 349 7 102 86 62 103 112 118 120 47 100 146 142 143 154 163 174 182
341 340 338 334 331 327 320 314 308 304 296 287 237 186 245 248 287 291 204 282 223 215 217 261 202 250 165 97 27 86 48 117 219 159 175 110 223 158 162 164 172 178 186 191 194
339 339 338 335 331 326 321 314 307 308 261 146 125 166 267 300 245 249 181 229 121 254 241 251 160 183 106 92 21 9 154 181 166 197 162 100 146 185 178 186 185 192 193 198 202
339 338 338 336 332 327 322 311 295 280 118 189 256 358 273 264 279 248 202 171 164 352 69 143 65 106 38 76 210 180 135 264 213 208 121 129 164 173 185 193 194 199 202 202 201
340 338 338 338 332 329 334 7 14 352 15 234 233 267 290 338 313 304 276 128 130 126 149 269 112 181 205 199 185 190 143 174 223 187 124 177 157 182 189 199 202 214 200 205 205
341 341 338 338 331 331 339 73 77 264 300 258 247 249 262 24 307 311 335 145 139 165 127 49 207 223 207 185 183 221 163 204 237 153 100 175 191 185 190 203 204 211 212 211 200
339 340 341 338 327 30 307 106 330 313 228 281 223 218 211 156 211 261 167 178 157 153 169 168 220 162 176 203 187 228 186 165 236 126 51 122 70 189 214 206 213 217 216 223 210
336 338 343 339 48 327 305 318 330 226 317 270 234 250 181 144 252 211 189 167 235 188 135 211 189 184 187 214 157 203 200 176 154 91 204 170 270 211 198 209 209 214 210 216 214
331 333 338 346 277 316 282 324 319 95 313 228 216 178 202 172 153 218 159 112 194 175 137 225 173 169 210 213 164 229 167 180 138 128 128 199 355 272 178 208 213 211 213 209 211
326 323 334 1 295 245 310 309 32 53 243 301 171 162 108 263 241 122 152 127 166 204 120 210 187 167 196 210 196 225 190 108 57 95 340 189 152 251 186 210 207 212 208 211 206
322 316 320 285 247 327 330 4 67 185 330 293 359 18 250 189 217 188 162 172 172 153 203 158 237 233 119 97 313 158 76 5 355 68 228 143 164 234 216 201 199 201 204 203 202
323 314 288 247 270 315 17 51 181 224 270 354 353 307 212 167 225 228 170 183 202 124 132 187 224 198 178 172 179 214 149 162 195 196 264 110 222 250 219 202 194 198 198 191 195
326 327 305 266 204 103 73 123 207 270 4 336 337 9 337 345 358 147 208 202 188 177 161 156 240 266 178 149 148 209 182 204 115 43 294 211 276 295 279 177 168 187 180 191 195
321 345 285 295 165 63 72 227 250 354 360 348 29 14 339 331 12 356 178 190 183 193 155 186 163 221 174 124 230 150 173 89 5 203 243 284 279 249 148 163 164 180 189 192 195
30 360 261 354 82 47 165 246 289 66 7 349 352 323 312 343 323 292 266 274 172 187 149 144 121 267 150 196 193 148 181 85 128 137 184 181 269 224 195 188 180 189 193 190 188
19 335 297 18 68 29 193 258 326 329 0 272 285 250 262 347 316 297 302 306 17 320 182 203 164 208 203 198 181 183 188 160 151 242 250 153 262 213 192 202 180 194 193 194 195
347 269 313 72 84 336 302 296 260 321 24 339 319 7 325 336 324 282 269 312 339 356 188 176 210 91 71 337 135 167 179 135 118 99 200 143 254 265 125 178 202 195 192 193 198
23 354 325 35 31 61 354 293 302 307 275 245 249 266 303 289 210 276 290 313 325 310 284 261 154 200 207 217 139 170 164 170 154 146 186 210 250 244 195 204 217 211 204 191 189
59 2 91 316 334 322 276 281 297 302 324 314 291 235 259 267 292 244 268 283 289 299 304 157 205 189 217 219 146 173 178 164 177 189 175 222 203 242 245 206 215 210 200 187 191
117 84 334 271 292 245 240 260 302 300 296 280 222 255 284 237 239 275 313 319 262 329 6 337 235 168 221 218 236 243 242 189 214 168 206 166 236 215 199 189 186 204 193 190 189
292 315 136 278 310 316 244 329 300 315 273 241 272 316 290 262 276 284 276 279 263 290 315 291 322 171 223 174 199 241 235 224 208 176 179 188 224 171 212 202 200 192 194 191 198